| time (UTC) | temp F | wind direction | speed MPH | gust MPH | rain 1hr in | rain 24hr in | rain mn in | humidity % | barometer mb |
| 20260906144308 | 67 | 325 | 1.0 | 3.0 | 0.00 | 0.01 | 0.00 | 50 | 1027.1 |
| 20260906142822 | 65 | 314 | 1.0 | 4.0 | 0.00 | 0.01 | 0.00 | 54 | 1027.1 |
| 20260906141822 | 64 | 319 | 2.0 | 7.0 | 0.00 | 0.01 | 0.00 | 56 | 1027.1 |
| 20260906140823 | 63 | 311 | 2.0 | 7.0 | 0.00 | 0.01 | 0.00 | 56 | 1027.0 |
| 20260906135822 | 62 | 334 | 2.0 | 6.0 | 0.00 | 0.01 | 0.00 | 58 | 1027.0 |
| 20260906134822 | 61 | 257 | 1.0 | 4.0 | 0.00 | 0.01 | 0.00 | 60 | 1027.0 |
| 20260906133822 | 59 | 321 | 1.0 | 5.0 | 0.00 | 0.01 | 0.00 | 62 | 1027.0 |
| 20260906132820 | 57 | 269 | 0.0 | 1.0 | 0.00 | 0.01 | 0.00 | 69 | 1026.9 |
| 20260906131820 | 55 | 269 | 0.0 | 1.0 | 0.00 | 0.01 | 0.00 | 72 | 1026.8 |
| 20260906130821 | 54 | 269 | 0.0 | 0.0 | 0.00 | 0.01 | 0.00 | 73 | 1026.8 |
| 20260906125820 | 53 | 268 | 0.0 | 1.0 | 0.00 | 0.01 | 0.00 | 73 | 1026.8 |
| 20260906124819 | 53 | 269 | 0.0 | 1.0 | 0.00 | 0.01 | 0.00 | 73 | 1026.8 |
| 20260906123820 | 53 | 268 | 0.0 | 1.0 | 0.00 | 0.01 | 0.00 | 72 | 1026.6 |
| 20260906122821 | 53 | 269 | 0.0 | 0.0 | 0.00 | 0.01 | 0.00 | 73 | 1026.5 |
| 20260906121819 | 54 | 269 | 0.0 | 1.0 | 0.00 | 0.01 | 0.00 | 71 | 1026.6 |
| 20260906120817 | 54 | 268 | 0.0 | 1.0 | 0.00 | 0.01 | 0.00 | 71 | 1026.6 |
| 20260906120306 | 54 | 269 | 0.0 | 0.0 | 0.00 | 0.01 | 0.00 | 70 | 1026.6 |
| 20260906114818 | 54 | 268 | 0.0 | 1.0 | 0.00 | 0.01 | 0.00 | 71 | 1026.6 |
| 20260906113819 | 54 | 269 | 0.0 | 1.0 | 0.00 | 0.01 | 0.00 | 71 | 1026.6 |
| 20260906113259 | 53 | 269 | 0.0 | 1.0 | 0.00 | 0.01 | 0.00 | 73 | 1026.6 |
| 20260906111818 | 53 | 270 | 0.0 | 1.0 | 0.00 | 0.01 | 0.00 | 75 | 1026.5 |
| 20260906110818 | 53 | 291 | 0.0 | 1.0 | 0.00 | 0.01 | 0.00 | 75 | 1026.5 |
| 20260906110255 | 53 | 332 | 0.0 | 0.0 | 0.00 | 0.01 | 0.00 | 75 | 1026.5 |
| 20260906104814 | 53 | 332 | 0.0 | 0.0 | 0.00 | 0.01 | 0.00 | 74 | 1026.5 |
| 20260906103816 | 53 | 332 | 0.0 | 0.0 | 0.00 | 0.01 | 0.00 | 74 | 1026.5 |
| 20260906102800 | 54 | 331 | 0.0 | 1.0 | 0.00 | 0.01 | 0.00 | 72 | 1026.5 |
| 20260906101800 | 54 | 332 | 0.0 | 1.0 | 0.00 | 0.01 | 0.00 | 72 | 1026.4 |
| 20260906100800 | 54 | 252 | 0.0 | 1.0 | 0.00 | 0.01 | 0.00 | 73 | 1026.5 |
| 20260906095756 | 54 | 272 | 0.0 | 1.0 | 0.00 | 0.01 | 0.00 | 72 | 1026.5 |
| 20260906094756 | 54 | 273 | 0.0 | 1.0 | 0.00 | 0.01 | 0.00 | 74 | 1026.5 |
| 20260906093757 | 53 | 331 | 0.0 | 0.0 | 0.00 | 0.01 | 0.00 | 75 | 1026.8 |
| 20260906092758 | 54 | 332 | 0.0 | 0.0 | 0.00 | 0.01 | 0.00 | 72 | 1026.9 |
| 20260906091754 | 53 | 332 | 0.0 | 1.0 | 0.00 | 0.01 | 0.00 | 73 | 1026.9 |
| 20260906090754 | 54 | 332 | 0.0 | 1.0 | 0.00 | 0.01 | 0.00 | 74 | 1026.8 |
| 20260906085755 | 54 | 205 | 0.0 | 1.0 | 0.00 | 0.01 | 0.00 | 73 | 1026.6 |
| 20260906084754 | 54 | 205 | 0.0 | 1.0 | 0.00 | 0.01 | 0.00 | 71 | 1026.6 |
| 20260906083754 | 55 | 245 | 0.0 | 1.0 | 0.00 | 0.01 | 0.00 | 72 | 1026.5 |
| 20260906082754 | 55 | 245 | 0.0 | 1.0 | 0.00 | 0.01 | 0.00 | 71 | 1026.5 |
| 20260906081754 | 55 | 332 | 0.0 | 0.0 | 0.00 | 0.01 | 0.00 | 73 | 1026.6 |
| 20260906081220 | 56 | 332 | 0.0 | 1.0 | 0.00 | 0.01 | 0.00 | 72 | 1026.6 |
| 20260906080207 | 57 | 332 | 0.0 | 1.0 | 0.00 | 0.01 | 0.00 | 69 | 1026.8 |
| 20260906075209 | 58 | 282 | 0.0 | 1.0 | 0.00 | 0.01 | 0.00 | 66 | 1026.8 |
| 20260906073733 | 59 | 252 | 0.0 | 1.0 | 0.00 | 0.01 | 0.00 | 66 | 1026.8 |
| 20260906072727 | 58 | 263 | 0.0 | 2.0 | 0.00 | 0.01 | 0.00 | 66 | 1026.8 |
| 20260906071725 | 60 | 308 | 0.0 | 1.0 | 0.00 | 0.01 | 0.00 | 64 | 1026.9 |
| 20260906070725 | 60 | 248 | 1.0 | 3.0 | 0.00 | 0.01 | 0.00 | 63 | 1027.0 |
| 20260906065726 | 59 | 255 | 0.0 | 2.0 | 0.00 | 0.01 | 0.00 | 66 | 1026.9 |
| 20260906064726 | 58 | 309 | 1.0 | 5.0 | 0.00 | 0.01 | 0.00 | 69 | 1026.9 |
| 20260906063727 | 58 | 293 | 0.0 | 2.0 | 0.00 | 0.01 | 0.00 | 72 | 1027.0 |
| 20260906062727 | 58 | 308 | 0.0 | 1.0 | 0.00 | 0.01 | 0.00 | 72 | 1027.1 |
| 20260906061726 | 59 | 308 | 1.0 | 4.0 | 0.00 | 0.01 | 0.00 | 72 | 1027.3 |
| 20260906061643 | 59 | 314 | 0.0 | 2.0 | 0.00 | 0.01 | 0.00 | 71 | 1027.1 |
| 20260906055722 | 60 | 302 | 0.0 | 2.0 | 0.00 | 0.01 | 0.01 | 69 | 1027.4 |
| 20260906054722 | 61 | 283 | 2.0 | 5.0 | 0.00 | 0.01 | 0.01 | 66 | 1027.4 |
| 20260906053718 | 60 | 245 | 1.0 | 4.0 | 0.00 | 0.01 | 0.01 | 69 | 1027.6 |
| 20260906052718 | 61 | 248 | 1.0 | 4.0 | 0.01 | 0.01 | 0.01 | 71 | 1027.6 |
| 20260906051720 | 60 | 312 | 0.0 | 1.0 | 0.01 | 0.01 | 0.01 | 77 | 1027.9 |
| 20260906050718 | 60 | 312 | 0.0 | 2.0 | 0.01 | 0.01 | 0.01 | 76 | 1027.9 |
| 20260906045718 | 62 | 325 | 0.0 | 5.0 | 0.01 | 0.01 | 0.01 | 71 | 1027.8 |
| 20260906045156 | 63 | 285 | 1.0 | 4.0 | 0.01 | 0.01 | 0.01 | 67 | 1027.8 |
| 20260906043718 | 67 | 167 | 1.0 | 4.0 | 0.01 | 0.01 | 0.01 | 58 | 1027.9 |
| 20260906042715 | 68 | 208 | 2.0 | 7.0 | 0.00 | 0.00 | 0.00 | 46 | 1027.4 |
| 20260906041714 | 68 | 212 | 2.0 | 6.0 | 0.00 | 0.00 | 0.00 | 48 | 1027.1 |
| 20260906040715 | 69 | 39 | 1.0 | 6.0 | 0.00 | 0.00 | 0.00 | 45 | 1027.1 |
| 20260906035711 | 68 | 305 | 2.0 | 11.0 | 0.00 | 0.00 | 0.00 | 44 | 1027.1 |
| 20260906034710 | 68 | 294 | 5.0 | 11.0 | 0.00 | 0.00 | 0.00 | 46 | 1027.0 |
| 20260906033710 | 68 | 316 | 7.0 | 11.0 | 0.00 | 0.00 | 0.00 | 45 | 1026.8 |
| 20260906032710 | 69 | 326 | 6.0 | 11.0 | 0.00 | 0.00 | 0.00 | 43 | 1026.8 |
| 20260906032134 | 69 | 304 | 4.0 | 9.0 | 0.00 | 0.00 | 0.00 | 41 | 1026.8 |
| 20260906030651 | 70 | 345 | 0.0 | 3.0 | 0.00 | 0.00 | 0.00 | 40 | 1026.5 |
| 20260906030623 | 70 | 319 | 1.0 | 4.0 | 0.00 | 0.00 | 0.00 | 39 | 1026.4 |
| 20260906024650 | 69 | 238 | 2.0 | 6.0 | 0.00 | 0.00 | 0.00 | 40 | 1026.3 |
| 20260906023650 | 69 | 252 | 2.0 | 6.0 | 0.00 | 0.00 | 0.00 | 41 | 1026.1 |
| 20260906022650 | 68 | 279 | 1.0 | 5.0 | 0.00 | 0.00 | 0.00 | 43 | 1026.0 |
| 20260906021648 | 69 | 307 | 3.0 | 7.0 | 0.00 | 0.00 | 0.00 | 41 | 1025.9 |
| 20260906021135 | 70 | 319 | 2.0 | 5.0 | 0.00 | 0.00 | 0.00 | 39 | 1025.8 |
| 20260906015644 | 71 | 302 | 1.0 | 6.0 | 0.00 | 0.00 | 0.00 | 38 | 1025.9 |
| 20260906014644 | 71 | 312 | 1.0 | 4.0 | 0.00 | 0.00 | 0.00 | 38 | 1025.9 |
| 20260906013644 | 72 | 297 | 1.0 | 4.0 | 0.00 | 0.00 | 0.00 | 37 | 1025.8 |
| 20260906012645 | 73 | 268 | 2.0 | 5.0 | 0.00 | 0.00 | 0.00 | 36 | 1025.9 |
| 20260906011645 | 73 | 304 | 2.0 | 5.0 | 0.00 | 0.00 | 0.00 | 35 | 1025.8 |
| 20260906010643 | 74 | 277 | 2.0 | 7.0 | 0.00 | 0.00 | 0.00 | 34 | 1025.9 |
| 20260906005642 | 76 | 257 | 1.0 | 4.0 | 0.00 | 0.00 | 0.00 | 31 | 1025.8 |
| 20260906004642 | 76 | 36 | 0.0 | 4.0 | 0.00 | 0.00 | 0.00 | 30 | 1025.6 |
| 20260906004602 | 76 | 357 | 0.0 | 3.0 | 0.00 | 0.00 | 0.00 | 31 | 1025.6 |
| 20260906002642 | 77 | 36 | 0.0 | 4.0 | 0.00 | 0.00 | 0.00 | 30 | 1025.5 |
| 20260906001640 | 77 | 89 | 0.0 | 5.0 | 0.00 | 0.00 | 0.00 | 30 | 1025.5 |
| 20260906001117 | 78 | 58 | 1.0 | 4.0 | 0.00 | 0.00 | 0.00 | 29 | 1025.5 |
| 20260905235641 | 78 | 52 | 1.0 | 6.0 | 0.00 | 0.00 | 0.00 | 28 | 1025.4 |
| 20260905235138 | 79 | 106 | 1.0 | 6.0 | 0.00 | 0.00 | 0.00 | 28 | 1025.4 |
| 20260905233641 | 79 | 25 | 1.0 | 5.0 | 0.00 | 0.00 | 0.00 | 29 | 1025.2 |
| 20260905232641 | 79 | 143 | 1.0 | 5.0 | 0.00 | 0.00 | 0.00 | 29 | 1025.2 |
| 20260905231640 | 79 | 44 | 1.0 | 5.0 | 0.00 | 0.00 | 0.00 | 28 | 1025.2 |
| 20260905230639 | 79 | 322 | 1.0 | 4.0 | 0.00 | 0.00 | 0.00 | 28 | 1025.2 |
| 20260905225611 | 80 | 53 | 2.0 | 6.0 | 0.00 | 0.00 | 0.00 | 27 | 1025.2 |
| 20260905224610 | 80 | 98 | 1.0 | 6.0 | 0.00 | 0.00 | 0.00 | 28 | 1025.2 |
| 20260905223612 | 79 | 311 | 3.0 | 6.0 | 0.00 | 0.00 | 0.00 | 28 | 1025.2 |
| 20260905223055 | 80 | 316 | 1.0 | 6.0 | 0.00 | 0.00 | 0.00 | 26 | 1025.4 |
| 20260905222047 | 80 | 39 | 1.0 | 8.0 | 0.00 | 0.00 | 0.00 | 27 | 1025.5 |
| 20260905220610 | 80 | 72 | 3.0 | 9.0 | 0.00 | 0.00 | 0.00 | 27 | 1025.5 |
| 20260905215541 | 80 | 51 | 2.0 | 6.0 | 0.00 | 0.00 | 0.00 | 28 | 1025.5 |
| 20260905214542 | 80 | 68 | 3.0 | 10.0 | 0.00 | 0.00 | 0.00 | 28 | 1025.8 |
| 20260905213542 | 80 | 320 | 3.0 | 7.0 | 0.00 | 0.00 | 0.00 | 27 | 1025.8 |
| 20260905212537 | 80 | 57 | 3.0 | 14.0 | 0.00 | 0.00 | 0.00 | 28 | 1025.9 |
| 20260905211538 | 80 | 309 | 3.0 | 11.0 | 0.00 | 0.00 | 0.00 | 26 | 1026.0 |
| 20260905210540 | 81 | 51 | 2.0 | 12.0 | 0.00 | 0.00 | 0.00 | 26 | 1026.0 |
| 20260905205523 | 80 | 359 | 3.0 | 10.0 | 0.00 | 0.00 | 0.00 | 27 | 1026.3 |
| 20260905205432 | 81 | 44 | 0.0 | 6.0 | 0.00 | 0.00 | 0.00 | 27 | 1026.3 |
| 20260905203516 | 79 | 30 | 2.0 | 6.0 | 0.00 | 0.00 | 0.00 | 28 | 1026.3 |
| 20260905202516 | 78 | 349 | 1.0 | 5.0 | 0.00 | 0.00 | 0.00 | 28 | 1026.4 |
| 20260905201516 | 79 | 307 | 2.0 | 7.0 | 0.00 | 0.00 | 0.00 | 28 | 1026.4 |
| 20260905200950 | 79 | 91 | 2.0 | 9.0 | 0.00 | 0.00 | 0.00 | 29 | 1026.4 |
| 20260905195514 | 79 | 338 | 2.0 | 12.0 | 0.00 | 0.00 | 0.00 | 28 | 1026.5 |
| 20260905194516 | 79 | 342 | 4.0 | 12.0 | 0.00 | 0.00 | 0.00 | 29 | 1026.5 |
| 20260905193455 | 80 | 9 | 2.0 | 7.0 | 0.00 | 0.00 | 0.00 | 28 | 1026.6 |
| 20260905192926 | 79 | 355 | 3.0 | 11.0 | 0.00 | 0.00 | 0.00 | 29 | 1026.6 |
| 20260905191938 | 79 | 40 | 2.0 | 9.0 | 0.00 | 0.00 | 0.00 | 29 | 1026.5 |
| 20260905190452 | 80 | 103 | 2.0 | 9.0 | 0.00 | 0.00 | 0.00 | 29 | 1026.6 |
| 20260905185451 | 78 | 354 | 2.0 | 8.0 | 0.00 | 0.00 | 0.00 | 30 | 1026.6 |
| 20260905184451 | 78 | 96 | 3.0 | 9.0 | 0.00 | 0.00 | 0.00 | 30 | 1026.6 |
| 20260905183450 | 77 | 47 | 2.0 | 8.0 | 0.00 | 0.00 | 0.00 | 29 | 1026.8 |
| 20260905182449 | 77 | 43 | 2.0 | 8.0 | 0.00 | 0.00 | 0.00 | 29 | 1026.8 |
| 20260905181446 | 78 | 61 | 1.0 | 6.0 | 0.00 | 0.00 | 0.00 | 29 | 1026.8 |
| 20260905180446 | 78 | 103 | 2.0 | 11.0 | 0.00 | 0.00 | 0.00 | 29 | 1026.8 |
| 20260905175445 | 79 | 92 | 2.0 | 7.0 | 0.00 | 0.00 | 0.00 | 29 | 1026.9 |
| 20260905174445 | 80 | 346 | 2.0 | 11.0 | 0.00 | 0.00 | 0.00 | 29 | 1026.9 |
| 20260905173445 | 80 | 119 | 1.0 | 6.0 | 0.00 | 0.00 | 0.00 | 29 | 1026.9 |
| 20260905172446 | 78 | 131 | 2.0 | 8.0 | 0.00 | 0.00 | 0.00 | 29 | 1026.9 |
| 20260905171446 | 79 | 118 | 1.0 | 7.0 | 0.00 | 0.00 | 0.00 | 29 | 1026.9 |
| 20260905170925 | 78 | 113 | 0.0 | 2.0 | 0.00 | 0.00 | 0.00 | 28 | 1026.9 |
| 20260905165446 | 78 | 56 | 0.0 | 1.0 | 0.00 | 0.00 | 0.00 | 28 | 1026.8 |
| 20260905164447 | 77 | 341 | 1.0 | 4.0 | 0.00 | 0.00 | 0.00 | 27 | 1026.8 |
| 20260905163445 | 77 | 311 | 1.0 | 8.0 | 0.00 | 0.00 | 0.00 | 29 | 1026.8 |
| 20260905162444 | 77 | 316 | 3.0 | 10.0 | 0.00 | 0.00 | 0.00 | 29 | 1026.8 |
| 20260905161444 | 77 | 272 | 2.0 | 8.0 | 0.00 | 0.00 | 0.00 | 29 | 1026.6 |
| 20260905160444 | 76 | 272 | 2.0 | 7.0 | 0.00 | 0.00 | 0.00 | 28 | 1026.8 |
| 20260905155444 | 76 | 298 | 4.0 | 10.0 | 0.00 | 0.00 | 0.00 | 29 | 1026.8 |
| 20260905154444 | 76 | 266 | 4.0 | 14.0 | 0.00 | 0.00 | 0.00 | 30 | 1026.6 |
| 20260905153928 | 75 | 277 | 5.0 | 15.0 | 0.00 | 0.00 | 0.00 | 31 | 1026.8 |
| 20260905152444 | 74 | 264 | 5.0 | 10.0 | 0.00 | 0.00 | 0.00 | 32 | 1026.6 |
| 20260905151442 | 73 | 325 | 5.0 | 12.0 | 0.00 | 0.00 | 0.00 | 32 | 1026.5 |
| 20260905150442 | 72 | 305 | 6.0 | 10.0 | 0.00 | 0.00 | 0.00 | 33 | 1026.6 |
| 20260905145442 | 71 | 325 | 6.0 | 11.0 | 0.00 | 0.00 | 0.00 | 35 | 1026.8 |